Simultaneous Nadir Overpasses (SNOs) Predictions

Prediction of SNOs near equator between AQUA and NPP Satellite Orbit:

Table of predicted SNOs near equator for the next 14.0 days since TLE Epoch: 1/16/2015
Index Date (AQUA) Time (AQUA) AQUA Lat,Lon Date (NPP) Time (NPP) NPP Lat,Lon Distance(km) Time Diff (sec)
1 01/16/2015 12:25:49 -30.00,-167.23 01/16/2015 12:16:40 -30.21,-166.23 98.91 549
2 01/16/2015 13:15:19 29.97, 0.40 01/16/2015 13:07:27 30.10, 1.10 68.40 472
3 01/16/2015 14:04:42 -29.99, 168.05 01/16/2015 13:58:07 -30.05, 168.44 37.92 395
4 01/16/2015 14:54:12 29.96, -24.32 01/16/2015 14:48:55 29.99, -24.25 7.48 317
5 01/16/2015 15:37:14 -7.04, 148.66 01/16/2015 15:33:04 -7.03, 148.67 0.97 250
6 01/16/2015 16:19:35 -18.93, -38.08 01/16/2015 16:16:31 -18.95, -38.13 5.31 184
7 01/16/2015 17:07:42 23.47, 130.64 01/16/2015 17:05:54 23.51, 130.32 32.45 108
8 01/16/2015 17:55:57 -28.02, -60.61 01/16/2015 17:55:24 -28.12, -61.18 56.97 33
9 01/16/2015 18:44:48 29.92, 107.53 01/16/2015 18:45:31 30.11, 106.68 84.23 43
10 01/19/2015 04:42:21 -29.97, -51.35 01/19/2015 04:33:29 -30.17, -50.44 90.59 532
11 01/19/2015 05:31:51 29.95, 116.28 01/19/2015 05:24:16 30.06, 116.89 60.03 455
12 01/19/2015 06:21:14 -29.96, -76.07 01/19/2015 06:14:56 -30.01, -75.77 29.53 378
13 01/19/2015 07:10:20 28.50, 91.93 01/19/2015 07:05:19 28.49, 91.94 0.65 301
14 01/19/2015 07:51:48 0.12, -93.94 01/19/2015 07:47:52 0.12, -93.95 1.03 236
15 01/19/2015 08:35:51 -19.91, 78.01 01/19/2015 08:33:04 -19.93, 77.89 13.24 167
16 01/19/2015 09:23:58 24.46,-113.25 01/19/2015 09:22:26 24.54,-113.63 39.75 92
17 01/19/2015 10:12:14 -28.94, 55.49 01/19/2015 10:11:57 -29.09, 54.86 63.86 17
18 01/19/2015 11:01:20 29.94,-136.59 01/19/2015 11:02:20 30.14,-137.52 92.59 60
19 01/21/2015 20:58:53 -29.98, 64.52 01/21/2015 20:50:18 -30.14, 65.35 82.01 515
20 01/21/2015 21:48:23 29.96,-127.85 01/21/2015 21:41:06 30.09,-127.34 51.41 437
21 01/21/2015 22:37:46 -29.97, 39.80 01/21/2015 22:31:46 -30.03, 40.00 20.96 360
22 01/21/2015 23:24:38 20.44,-150.23 01/21/2015 23:19:51 20.44,-150.22 1.10 287
23 01/22/2015 00:05:29 10.44, 24.14 01/22/2015 00:01:46 10.44, 24.15 0.45 223
24 01/22/2015 00:52:05 -20.99,-165.86 01/22/2015 00:49:35 -21.01,-166.06 21.19 150
25 01/22/2015 01:40:13 25.47, 2.87 01/22/2015 01:38:58 25.57, 2.41 47.22 75
26 01/22/2015 02:28:29 -29.95, 171.63 01/22/2015 02:28:29 -30.12, 170.92 70.63 0
27 01/24/2015 13:15:24 -29.97,-179.60 01/24/2015 13:07:07 -30.11,-178.86 73.25 497
28 01/24/2015 14:04:54 29.95, -11.98 01/24/2015 13:57:55 30.06, -11.55 42.65 419
29 01/24/2015 14:54:17 -29.96, 155.68 01/24/2015 14:48:35 -30.01, 155.79 12.38 342
30 01/24/2015 15:39:11 13.31, -32.74 01/24/2015 15:34:39 13.31, -32.75 0.72 272
31 01/24/2015 16:20:04 17.45, 141.58 01/24/2015 16:16:36 17.45, 141.56 1.61 208
32 01/24/2015 17:08:20 -21.96, -49.76 01/24/2015 17:06:07 -22.04, -50.03 29.38 133
33 01/24/2015 17:56:26 26.56, 119.02 01/24/2015 17:55:29 26.64, 118.47 54.68 57
34 01/24/2015 18:45:01 -29.90, -72.51 01/24/2015 18:45:19 -30.08, -73.31 79.54 18
35 01/27/2015 04:42:31 29.98, 128.62 01/27/2015 04:33:16 30.20, 129.57 94.69 555
36 01/27/2015 05:31:54 -29.99, -63.73 01/27/2015 05:23:56 -30.14, -63.09 64.27 478
37 01/27/2015 06:21:24 29.97, 103.90 01/27/2015 06:14:43 30.04, 104.24 33.55 401
38 01/27/2015 07:10:47 -29.98, -88.45 01/27/2015 07:05:23 -29.98, -88.42 3.06 324
39 01/27/2015 07:52:50 3.00, 85.36 01/27/2015 07:48:32 3.00, 85.37 0.38 258
40 01/27/2015 08:36:16 18.51,-102.30 01/27/2015 08:33:06 18.53,-102.40 10.28 190
41 01/27/2015 09:24:31 -23.08, 66.39 01/27/2015 09:22:36 -23.17, 66.03 37.42 115
42 01/27/2015 10:12:38 27.62,-124.84 01/27/2015 10:11:59 27.72,-125.46 62.10 39
43 01/27/2015 11:01:30 -29.93, 43.38 01/27/2015 11:02:07 -30.11, 42.48 88.46 37
44 01/29/2015 20:59:01 29.98,-115.50 01/29/2015 20:50:05 30.19,-114.65 85.53 536
45 01/29/2015 21:48:24 -29.98, 52.15 01/29/2015 21:40:44 -30.07, 52.71 55.13 460
46 01/29/2015 22:37:54 29.98,-140.22 01/29/2015 22:31:32 30.03,-139.98 24.34 382
47 01/29/2015 23:26:00 -25.35, 28.60 01/29/2015 23:20:53 -25.36, 28.59 0.84 307
48 01/30/2015 00:06:47 -6.25,-156.79 01/30/2015 00:02:44 -6.25,-156.79 0.15 243
49 01/30/2015 00:52:28 19.60, 13.83 01/30/2015 00:49:36 19.66, 13.66 19.14 172
50 01/30/2015 01:40:42 -24.22,-177.46 01/30/2015 01:39:06 -24.30,-177.90 45.47 96
51 01/30/2015 02:28:50 28.70, -8.68 01/30/2015 02:28:29 28.84, -9.38 69.40 21
52 01/30/2015 03:18:00 -29.93, 159.26 01/30/2015 03:18:56 -30.12, 158.27 97.68 56




NCC Satellite Simultaneous Nadir Overpasses (SNOs) Prediction Service
